Luis Alberto Castillo

Olheiro-Chefe - Barracas Central
3 Abr 2027
Sábado
Processo

Personalidade

Adaptabilidade (13) Ambição (3) Controvérsia (2) Lealdade (13) Pressão (9) Profissionalismo (9) Espírito Esportivo (1) Temperamento (17)

Perfil

Estilo de Treinamento Democrático
Licença Continental C
Determinação 3
Gestão de Pessoas 4
Motivação 3
Disciplina 9
Satisfação no Trabalho
50%
Fadiga
0%
Função Olheiro-Chefe
Salário 20.3K p/s
Contrato 14.03.2028

Desempenho

Comportamento Normal
Eficácia do Treinamento
18%
Desenvolvimento do Jogador
20%
Prevenção de Lesões
20%
Implementação Tática
45%

Eventos Recentes

Participou de uma reunião de recrutamento agora
Recomendou um alvo de transferência agora
Recomendou um alvo de transferência agora
Recomendou um alvo de transferência agora
Recomendou um alvo de transferência 7d atrás
Recomendou um alvo de transferência 7d atrás
Recomendou um alvo de transferência 7d atrás
Participou de uma reunião de recrutamento 7d atrás

Monitorando agora

113
Jogador Clube Status Habilidade Confiança Observado Última observação Último voto
Nicolás Villagra All Boys Ativo 94 / 108 58% 1 21.12.2026 Aprovar
Agustín Menna Colón Ativo 82 / 92 58% 1 14.12.2026 Aprovar
Miro Dinamo Makhachkala Ativo 119 / 122 40% 1 02.12.2026 -
Brayan Gil Baltika Ativo 108 / 132 40% 1 02.12.2026 -
Dion Beljo Dinamo Zagreb Ativo 131 / 132 64% 1 01.12.2026 Aprovar
Ciprian Coman Pandurii Ativo 114 / 125 66% 1 01.12.2026 Aprovar
Dardan Shabanhaxhaj Rubin Ativo 124 / 111 40% 2 30.11.2026 -
Arkaitz Mariezkurrena Real Sociedad Ativo 117 / 133 40% 1 30.11.2026 -
Ole-Didrik Blomberg Bodo/Glimt Ativo 124 / 128 40% 1 29.11.2026 -
Armstrong Oko-Flex Levski Ativo 116 / 119 40% 1 29.11.2026 -
Dinis Pinto Moreirense Ativo 129 / 128 40% 1 28.11.2026 -
Isak Helstad Amundsen Molde Ativo 135 / 107 40% 1 28.11.2026 -
Celso Sidney Cherno More Ativo 94 / 101 40% 1 28.11.2026 -
Franco Ibarra Rosario Central Ativo 138 / 128 40% 1 24.11.2026 -
Lee Tae-Suk Austria Wien Ativo 130 / 133 40% 1 23.11.2026 -
Alexandru Musi Dinamo Bucharest Ativo 118 / 116 40% 1 23.11.2026 -
Emil Ceïde Rosenborg Ativo 140 / 108 40% 1 22.11.2026 -
Ryunosuke Sato Valencia Ativo 113 / 133 40% 1 22.11.2026 -
César Ibáñez Huracán Ativo 126 / 117 40% 3 21.11.2026 -
Felipe Fernández Vorskla Ativo 94 / 111 40% 2 21.11.2026 -
Aarón Molinas Defensa y Justicia Ativo 135 / 124 40% 1 21.11.2026 -
Bruno Zdunić Dugopolje Ativo 115 / 106 40% 1 21.11.2026 -
Vicente Poggi Godoy Cruz Ativo 116 / 130 40% 2 18.11.2026 -
Thomas Carrique Andorra Ativo 115 / 100 40% 1 18.11.2026 -
Carlos Mora Universitatea Craiova Ativo 117 / 117 40% 2 17.11.2026 -
Daniel Bassi Lillestrom Ativo 131 / 131 40% 1 17.11.2026 -
Ranko Veselinović Vancouver Whitecaps Ativo 121 / 109 40% 1 17.11.2026 -
Jesús Castillo Universitario Ativo 120 / 126 40% 2 16.11.2026 -
Mateo Mendoza Godoy Cruz Ativo 122 / 132 40% 2 16.11.2026 -
Ali Soliman Masr El Makasa Ativo 110 / 137 40% 1 15.11.2026 -
Alejo Dramisino Honved Ativo 102 / 100 40% 2 13.11.2026 -
Alan Lescano Argentinos Juniors Ativo 122 / 127 40% 1 12.11.2026 -
Marcos López San Martín Ativo 130 / 135 40% 1 12.11.2026 -
Pedro Ramírez Deportivo Riestra Ativo 128 / 127 40% 2 11.11.2026 -
Demba Seck Partizan Ativo 117 / 114 40% 1 11.11.2026 -
Marko Divković Brondby Ativo 111 / 120 40% 1 11.11.2026 -
Emmanuel Addai Qarabag Ativo 117 / 115 40% 1 09.11.2026 -
Mads Frøkjær Brondby Ativo 110 / 120 40% 1 09.11.2026 -
Ola Brynhildsen Bodo/Glimt Ativo 121 / 138 40% 1 09.11.2026 -
Assad Al Hamlawi Universitatea Craiova Ativo 118 / 111 40% 1 09.11.2026 -
Leandro Andrade Polissia Ativo 148 / 116 40% 2 07.11.2026 -
Victor Lind Hammarby Ativo 123 / 131 40% 1 07.11.2026 -
Marko Brest Olimpija Ljubljana Ativo 106 / 120 40% 3 05.11.2026 Observar
Ekain Orobengoa Real Sociedad Ativo 113 / 94 40% 1 05.11.2026 -
Noah Ganaus OB Ativo 109 / 108 40% 1 05.11.2026 -
Luís Guilherme Sporting CP Ativo 115 / 143 40% 1 03.11.2026 -
Ralph Orquin OGC Nice Ativo 118 / 128 40% 1 01.11.2026 -
Oleksandr Romanchuk Universitatea Craiova Ativo 116 / 107 40% 1 01.11.2026 -
Magnus Mattsson FC Copenhagen Ativo 114 / 128 40% 1 01.11.2026 -
Ramiro Hernandes Belgrano Ativo 115 / 129 40% 1 30.10.2026 -
Tomás O'Connor Gimnasia y Esgrima Ativo 111 / 124 40% 1 30.10.2026 -
Fiete Arp OB Ativo 124 / 120 40% 2 28.10.2026 -
Håkon Evjen Bodo/Glimt Ativo 126 / 133 40% 1 28.10.2026 -
Rodrigo González Aldosivi Ativo 123 / 122 40% 3 27.10.2026 -
Emil Breivik Molde Ativo 119 / 124 40% 1 27.10.2026 -
Joaquín García Vélez Ativo 118 / 129 40% 2 26.10.2026 -
Kevin Medina Córdoba Ativo 106 / 121 40% 1 25.10.2026 -
Ibrahim Tarek Masr El Makasa Ativo 137 / 113 40% 1 25.10.2026 -
Sheyko Studer Independiente Rivadavia Ativo 123 / 119 40% 1 25.10.2026 -
Adrian Pereira Rosenborg Ativo 104 / 108 40% 1 25.10.2026 -
Vinicius Tobias Shakhtar Ativo 126 / 136 40% 1 24.10.2026 -
Mariano Bracamonte Deportivo Riestra Ativo 107 / 108 40% 4 22.10.2026 -
Justo Giani Universidad Catolica Ativo 117 / 125 40% 2 19.10.2026 -
Siro Rosané Estudiantes Ativo 111 / 112 40% 1 18.10.2026 -
Patrik Wålemark Lech Ativo 119 / 115 40% 1 18.10.2026 -
Junior Hernández AIK Ativo 101 / 102 40% 1 18.10.2026 -
Jimer Fory Portland Timbers Ativo 112 / 124 40% 1 17.10.2026 -
Santiago González Tigre Ativo 119 / 119 40% 1 15.10.2026 -
Samuel Gidi FC Cincinnati Ativo 128 / 125 40% 1 14.10.2026 -
Federico Navarro Rosario Central Ativo 138 / 126 40% 1 14.10.2026 -
Elías Báez Atlanta United FC Ativo 129 / 141 40% 2 13.10.2026 -
Josip Mitrović Slaven Belupo Ativo 112 / 109 40% 1 13.10.2026 -
Clemente Montes Universidad Catolica Ativo 123 / 117 40% 2 12.10.2026 -
Santiago Toloza O'Higgins Ativo 129 / 124 40% 4 12.10.2026 -
Kristian Arnstad AGF Ativo 129 / 121 40% 2 11.10.2026 -
Franko Kovačević Ferencvaros Ativo 114 / 112 40% 1 11.10.2026 -
Víctor Felipe Méndez Colo-Colo Ativo 126 / 113 40% 2 10.10.2026 -
Pedro Zenit Ativo 121 / 136 40% 1 08.10.2026 -
Simen Bolkan Nordli Rosenborg Ativo 126 / 116 40% 1 07.10.2026 -
Ismael Cortez Gimnasia y Esgrima Ativo 108 / 118 40% 1 06.10.2026 -
Franco Fagúndez Estudiantes Ativo 122 / 110 40% 1 05.10.2026 -
Tomás Silva Platense Ativo 128 / 124 40% 1 05.10.2026 -
Łukasz Łakomy OH Leuven Ativo 116 / 111 40% 1 05.10.2026 -
Loïc Williams Colorado Rapids Ativo 116 / 121 40% 1 04.10.2026 -
Mads Bech Sørensen FC Midtjylland Ativo 141 / 132 40% 1 04.10.2026 -
Facundo Miño Deportivo Riestra Ativo 130 / 113 40% 1 03.10.2026 -
Elías López Aldosivi Ativo 127 / 128 40% 1 03.10.2026 -
Eric Meza Estudiantes Ativo 124 / 128 40% 1 01.10.2026 -
Thiago Helguera Braga Ativo 130 / 135 40% 2 30.09.2026 -
Jairo Concha Universitario Ativo 119 / 123 40% 1 30.09.2026 -
Tomás Alarcón Colo-Colo Ativo 112 / 126 40% 1 29.09.2026 -
Tobías Reinhart Universidad de Chile Ativo 130 / 128 40% 2 26.09.2026 -
Jake Davis Sporting Kansas City Ativo 128 / 110 40% 1 26.09.2026 -
Franco Díaz KV Oostende Ativo 110 / 119 40% 1 25.09.2026 -
Ramiro Sordo Santos Laguna Ativo 113 / 120 40% 1 23.09.2026 -
César Huerta Pumas UNAM Ativo 134 / 111 40% 1 23.09.2026 -
Tomás Escalante Plaza Colonia Ativo 116 / 126 40% 1 22.09.2026 -
Suleiman Camara Slovan Bratislava Ativo 119 / 108 40% 1 22.09.2026 -
Antonio Galeano Remo Stars Ativo 138 / 134 40% 1 21.09.2026 -
Mateo Silvetti Inter Miami CF Ativo 127 / 138 40% 1 19.09.2026 -
Mateo Garavito Deportivo Pasto Ativo 129 / 128 40% 3 18.09.2026 -
Agustín Amado Boston River Ativo 117 / 116 40% 1 18.09.2026 -
Pedro Vite Pumas UNAM Ativo 136 / 116 40% 1 18.09.2026 -
Ronaldo Pájaro Deportivo Cali Ativo 117 / 125 40% 2 16.09.2026 -
Déiber Caicedo Junior Ativo 124 / 122 40% 1 15.09.2026 -
Nicolás Retamar Ferro Carril Oeste Ativo 118 / 125 40% 1 15.09.2026 -
Dylan Borrero America de Cali Ativo 115 / 121 40% 1 14.09.2026 -
Samuel Velásquez Atletico Nacional Ativo 114 / 121 40% 1 11.09.2026 -
Luciano Cosentino Wanderers Ativo 115 / 129 40% 1 09.09.2026 -
Ivan Edson Veracruz Ativo 126 / 123 40% 1 09.09.2026 -
Jan Carlos Ángulo Deportes Tolima Ativo 112 / 117 40% 1 09.09.2026 -
Yílmar Velásquez Santa Fe Ativo 112 / 112 40% 1 07.09.2026 -
Facundo Batista Penarol Ativo 123 / 106 40% 1 07.09.2026 -